Simultaneous Nadir Overpasses (SNOs) Predictions

Prediction of SNOs between METOP-A and NOAA-19 Satellite Orbit:

Table of predicted SNOs for the next 14.0 days since TLE Epoch: 4/17/2021
Index Date (METOP-A) Time (METOP-A) Lat,Lon (METOP-A) SZA (METOP-A ) Date (NOAA-19) Time (NOAA-19) Lat,Lon (NOAA-19) SZA (NOAA-19 ) Distance(km) Time Diff (sec)
1 04/19/2021 10:56:29 -80.85,-153.73 110.37 04/19/2021 10:55:15 -80.86,-153.59 110.37 2.51 74
2 04/19/2021 11:47:10 80.84, 13.44 69.60 04/19/2021 11:46:13 80.86, 13.53 69.61 2.24 57
3 04/19/2021 12:37:50 -80.87,-178.88 110.38 04/19/2021 12:37:15 -80.86,-178.94 110.39 1.53 35
4 04/19/2021 13:28:31 80.86, -11.71 69.60 04/19/2021 13:28:13 80.86, -11.82 69.59 1.91 18
5 04/19/2021 14:19:12 -80.86, 155.63 110.42 04/19/2021 14:19:15 -80.86, 155.70 110.41 1.27 3
6 04/19/2021 15:09:53 80.85, -37.20 69.56 04/19/2021 15:10:13 80.86, -37.17 69.58 1.46 20
7 04/19/2021 16:00:33 -80.87, 130.48 110.42 04/19/2021 16:01:15 -80.86, 130.34 110.43 2.69 42
8 04/19/2021 16:51:14 80.86, -62.35 69.55 04/19/2021 16:52:13 80.86, -62.52 69.56 2.90 59
9 04/30/2021 13:51:10 -80.85, 162.20 113.99 04/30/2021 13:50:12 -80.86, 162.12 114.00 1.71 58
10 04/30/2021 14:41:50 80.85, -30.41 66.01 04/30/2021 14:41:12 80.86, -30.53 66.00 2.14 38
11 04/30/2021 15:32:31 -80.86, 137.05 114.00 04/30/2021 15:32:11 -80.86, 137.13 114.00 1.46 20
12 04/30/2021 16:23:11 80.86, -55.56 66.00 04/30/2021 16:23:11 80.86, -55.51 66.00 1.12 0
13 04/30/2021 17:13:52 -80.87, 111.90 114.00 04/30/2021 17:14:11 -80.86, 111.77 114.02 2.76 19
14 04/30/2021 18:04:33 80.85, -81.06 65.97 04/30/2021 18:05:12 80.86, -81.23 65.97 3.14 39
15 04/30/2021 18:55:14 -80.86, 86.41 114.04 04/30/2021 18:56:11 -80.86, 86.41 114.03 0.45 57



Historial Predications of SNOs between METOP-A and NOAA-19
